Hourly Data Report for September 01, 2017

All times are specified in Local Standard Time (LST). Add 1 hour to adjust for Daylight Saving Time where and when it is observed.

EAST POINT (AUT)
PRINCE EDWARD ISLAND

46°27'36.000" N
61°59'18.000" W
7.70 m
8300418
71412
WEP

Download Data

Hourly Data (September 2017)
Hourly Data Report for September 1, 2017
Temp Definition
°C
Dew Point Temp Definition
°C
Rel Hum Definition
%
Wind Dir Definition
10's deg

Wind Spd Definition
km/h
Visibility Definition
km
Stn Press Definition
kPa
Hmdx Definition


Wind Chill Definition


Weather Definition


TIME
00:00 15.3 12.9 86 29 32   100.13     LegendNANA
01:00 15.5 10.4 72 29 35   100.15     LegendNANA
02:00 14.5 9.7 73 26 19   100.20     LegendNANA
03:00 12.9 10.3 84 24 17   100.21     LegendNANA
04:00 13.3 10.4 82 25 20   100.22     LegendNANA
05:00 13.0 8.9 76 26 19   100.29     LegendNANA
06:00 12.4 8.8 78 25 15   100.32     LegendNANA
07:00 11.9 8.5 79 22 14   100.37     LegendNANA
08:00 13.1 8.4 73 23 15   100.43     LegendNANA
09:00 15.0 8.5 65 24 19   100.45     LegendNANA
10:00 15.3 7.5 60 28 19   100.44     LegendNANA
11:00 15.6 7.7 59 26 16   100.41     LegendNANA
12:00 13.4 9.5 77 27 16   100.42     LegendNANA
13:00 14.2 7.5 64 27 24   100.42     LegendNANA
14:00 14.7 6.2 57 27 22   100.45     LegendNANA
15:00 15.6 7.4 58 28 24   100.45     LegendNANA
16:00 15.4 7.7 60 25 13   100.41     LegendNANA
17:00 12.9 9.1 78 29 27   100.47     LegendNANA
18:00 12.7 8.1 74 23 6   100.46     LegendNANA
19:00 12.5 8.3 76 29 17   100.52     LegendNANA
20:00 10.8 7.3 79 23 15   100.59     LegendNANA
21:00 10.0 5.9 75 24 15   100.60     LegendNANA
22:00 9.8 6.0 77 24 17   100.62     LegendNANA
23:00 9.6 6.6 82 23 17   100.62     LegendNANA

Notes on Data Quality.

Legend

  • E = Estimated
  • M = Missing
  • NA = Not Available
  • ‡ = Partner data that is not subject to review by the National Climate Archives
Date modified: